Flag for Brazil Weather past 2 weeks in Santarém, Para, Brazil

Now
81 °F

Broken clouds.


Feels Like: 87 °F
Forecast: 75 / 91 °F
Wind: No wind

Location: Santarem-Aeroporto

Current Time: Dec 18, 2014 at 8:44:11 AM

Latest Report: Dec 18, 2014 at 8:00 AM


Visibility: N/A

Pressure: 29.86 "Hg

Humidity: 89%

Dew point: 77 °F

Location of SantarémLocation

Historic Weather in Santarém — Graph

°F

Santarém temperature yesterday

Maximum temperature yesterday: 95 °F (at 3:00 PM)
Minimum temperature yesterday: 73 °F (at 5:00 AM)
Average temperature yesterday: 83 °F

Past Weeks' High & Low Weather Summary

 TemperatureHumidityPressure
High95 °F (Dec 17, 3:00 PM)100% (Dec 12, 11:00 PM)29.95 "Hg (Dec 12, 11:00 PM)
Low72 °F (Dec 4, 5:00 AM)39% (Dec 3, 3:00 PM)29.65 "Hg (Dec 9, 7:00 PM)
Average84 °F73%29.81 "Hg
* Reported Dec 3 7:00 AM — Dec 18 7:00 AM, Santarém, Weather by CustomWeather, © 2014

Note: Actual official high and low records may vary slightly from our data, if they occured in-between our weather recording intervals... More about our weather records

Advertising

Santarém weather history for previous 24 hours

 ConditionsComfort  
Time TempWeatherWind HumidityBarometerVisibility
7:00 AM
Dec 18
79 °FPartly cloudy.3 mph89%29.83 "HgN/A
6:00 AM77 °FPassing clouds.6 mph94%29.83 "HgN/A
5:00 AM77 °FPassing clouds.6 mph94%29.80 "HgN/A
4:00 AM77 °FPassing clouds.6 mph94%29.80 "HgN/A
3:00 AM75 °FPartly cloudy.6 mph100%29.80 "HgN/A
2:00 AM75 °FRain. Mostly cloudy.12 mph94%29.83 "Hg1 mi
1:00 AM82 °FLight rain. Passing clouds.8 mph84%29.83 "Hg3 mi
12:00 AM77 °FPassing clouds.No wind83%29.83 "HgN/A
11:00 PM
Dec 17
79 °FClear.2 mph74%29.83 "Hg10 mi
10:00 PM77 °FClear.No wind83%29.83 "Hg10 mi
9:00 PM79 °FClear.2 mph79%29.80 "Hg10 mi
8:00 PM81 °FClear.1 mph74%29.77 "Hg10 mi
7:00 PM84 °FClear.2 mph66%29.77 "Hg10 mi
6:00 PM90 °FPassing clouds.5 mph55%29.74 "HgN/A
5:00 PM95 °FPassing clouds.No wind44%29.74 "HgN/A
4:00 PM93 °FPassing clouds.9 mph47%29.77 "HgN/A
3:00 PM95 °FPassing clouds.12 mph44%29.77 "HgN/A
2:00 PM93 °FPassing clouds.5 mph49%29.83 "HgN/A
1:00 PM91 °FPassing clouds.8 mph56%29.86 "HgN/A
12:00 PM91 °FPassing clouds.12 mph56%29.89 "HgN/A
11:00 AM88 °FPassing clouds.9 mph62%29.92 "HgN/A
10:00 AM88 °FPassing clouds.12 mph62%29.92 "Hg5 mi
9:00 AM86 °FClear.12 mph66%29.92 "Hg4 mi
8:00 AM82 °FHaze.3 mph74%29.89 "Hg3 mi
Weather by CustomWeather, © 2014

See weather overviewHow to use our weather pages